Regional Weather Roundup
Issued by NWS Memphis, TN

Home | Current Version | Previous Version | Text Only | Print | Product List | Glossary On
Versions: 1 2 3 4 5 6 7 8 9 10 11 12 13 14 15 16 17 18 19 20 21 22 23 24 25 26 27 28 29 30 31 32 33 34 35 36 37 38 39 40 41 42 43 44 45 46 47 48 49 50
000
ASUS44 KMEG 250810
RWRMEG
MEMPHIS CWA HOURLY WEATHER ROUNDUP
NATIONAL WEATHER SERVICE MEMPHIS TN
300 AM CDT MON MAY 25 2015

...WEST TENNESSEE...

CITY           SKY/WX    TMP DP  RH WIND       PRES   REMARKS
MEMPHIS INTL   LGT RAIN  70  66  87 S12       30.03S
NWS MEMPHIS      N/A     68 N/A N/A MISG        N/A
JACKSON        LGT RAIN  68  65  90 S6        30.06R
LEXINGTON      CLOUDY    70  66  88 S3        30.07F
DYERSBURG      CLOUDY    68  54  60 S5        30.04S
PARIS          CLOUDY    64  64 100 S9        30.06F


...EASTERN ARKANSAS...

CITY           SKY/WX    TMP DP  RH WIND       PRES   REMARKS
JONESBORO      LGT RAIN  68  67  96 S10       29.98S
WEST MEMPHIS   LGT RAIN  69  69 100 S15       30.01S
BATESVILLE     CLOUDY    68  64  88 SE8       29.94F
NEWPORT        LGT RAIN  70  69  96 S15       29.98S
WALNUT RIDGE   CLOUDY    70  66  88 S16       29.95F
BLYTHEVILLE    LGT RAIN  69  32  25 S10       30.02R
SEARCY         CLOUDY    70  69  97 S9        29.98S
STUTTGART      CLOUDY    72  66  83 MISG      29.98R
PINE BLUFF     CLOUDY    70  69  97 S6        29.98R
MONTICELLO     CLOUDY    71  70  96 S8        29.98S


...NORTH MISSISSIPPI...

CITY           SKY/WX    TMP DP  RH WIND       PRES   REMARKS
TUPELO         CLOUDY    71  68  90 S8        30.07S
OXFORD         CLOUDY    66  66 100 S6        30.08R
OLIVE BRANCH   PTCLDY    66 N/A N/A S9        30.05S
TUNICA         RAIN      68  66  94 SE12      30.02F
CLARKSDALE       N/A     68  68 100 CALM      30.01F
CORINTH        HVY RAIN  70  68  94 VRB6      30.06S
GREENWOOD        N/A    N/A N/A N/A MISG      30.04F
COLUMBUS       CLOUDY    72  72 100 SE9       30.08R
STARKVILLE     CLOUDY    72  70  94 CALM      30.08R
GOLDEN TRIANGL CLOUDY    72  70  94 S9        30.08R


...SOUTHEAST MISSOURI...

CITY           SKY/WX    TMP DP  RH WIND       PRES   REMARKS
WEST PLAINS    CLOUDY    68  64  87 S9        29.95R
POPLAR BLUFF   CLOUDY    69  66  90 S15G24    29.93F
CAPE GIRARDEAU LGT RAIN  70  68  93 S18G26    29.97S


...NORTHWEST ALABAMA...

CITY           SKY/WX    TMP DP  RH WIND       PRES   REMARKS
MUSCLE SHOALS  CLOUDY    70  65  84 S7        30.11S


...MIDDLE TENNESSEE...

CITY           SKY/WX    TMP DP  RH WIND       PRES   REMARKS
NASHVILLE      CLOUDY    72  62  71 S12       30.10F
CLARKSVILLE    LGT RAIN  70  66  87 S13G20    30.07R
COLUMBIA       CLOUDY    70  66  88 CALM      30.09S


...WESTERN KENTUCKY...

CITY           SKY/WX    TMP DP  RH WIND       PRES   REMARKS
PADUCAH        LGT RAIN  69  66  90 S13G23    30.01S
FORT CAMPBELL  LGT RAIN  70  66  88 S10       30.07R


...CENTRAL ARKANSAS...

CITY           SKY/WX    TMP DP  RH WIND       PRES   REMARKS
LITTLE ROCK    CLOUDY    70  67  90 CALM      29.97R


SKY/WX REPORTED AS FAIR MEANS FEW OR NO CLOUDS BELOW
12 THOUSAND FEET.



USA.gov is the U.S. government's official web portal to all federal, state and local government web resources and services.